Time,TemperatureF,DewpointF,PressureIn,WindDirection,WindDirectionDegrees,WindSpeedMPH,WindSpeedGustMPH,Humidity,HourlyPrecipIn,Conditions,Clouds,dailyrainin,SoftwareType,DateUTC
2013-01-08 00:02:00,24.0,20.0,29.64,South,178,6.0,-999.0,85,-99.99,,,-99.99,,2013-01-08 06:02:00,
2013-01-08 00:12:00,24.0,20.0,29.64,South,178,6.0,-999.0,85,-99.99,,,-99.99,,2013-01-08 06:12:00,
2013-01-08 00:22:00,25.0,21.0,29.64,South,179,7.0,-999.0,83,-99.99,,,-99.99,,2013-01-08 06:22:00,
2013-01-08 00:32:00,25.0,21.0,29.64,South,174,6.0,-999.0,83,-99.99,,,-99.99,,2013-01-08 06:32:00,
2013-01-08 00:42:00,25.0,21.0,29.64,South,174,6.0,-999.0,83,-99.99,,,-99.99,,2013-01-08 06:42:00,
2013-01-08 00:53:00,24.0,20.0,29.64,South,172,1.0,-999.0,83,-99.99,,,-99.99,,2013-01-08 06:53:00,
2013-01-08 01:02:00,24.0,20.0,29.63,South,170,0.0,-999.0,84,-99.99,,,-99.99,,2013-01-08 07:02:00,
2013-01-08 01:12:00,24.0,20.0,29.63,South,170,0.0,-999.0,84,-99.99,,,-99.99,,2013-01-08 07:12:00,
2013-01-08 01:22:00,24.0,20.0,29.61,South,170,0.0,-999.0,85,-99.99,,,-99.99,,2013-01-08 07:22:00,
2013-01-08 01:32:00,25.0,21.0,29.61,South,169,0.0,-999.0,86,-99.99,,,-99.99,,2013-01-08 07:32:00,
2013-01-08 01:42:00,25.0,21.0,29.61,South,169,0.0,-999.0,86,-99.99,,,-99.99,,2013-01-08 07:42:00,
2013-01-08 01:52:00,26.0,22.0,29.61,South,173,6.0,-999.0,84,-99.99,,,-99.99,,2013-01-08 07:52:00,
2013-01-08 02:02:00,26.0,22.0,29.61,South,173,4.0,-999.0,84,-99.99,,,-99.99,,2013-01-08 08:02:00,
2013-01-08 02:12:00,26.0,22.0,29.61,South,173,4.0,-999.0,84,-99.99,,,-99.99,,2013-01-08 08:12:00,
2013-01-08 02:22:00,27.0,23.0,29.61,South,175,6.0,-999.0,84,-99.99,,,-99.99,,2013-01-08 08:22:00,
2013-01-08 02:32:00,27.0,23.0,29.60,South,180,7.0,-999.0,86,-99.99,,,-99.99,,2013-01-08 08:32:00,
2013-01-08 02:42:00,27.0,23.0,29.60,South,180,7.0,-999.0,86,-99.99,,,-99.99,,2013-01-08 08:42:00,
2013-01-08 02:53:00,27.0,25.0,29.59,South,180,6.0,-999.0,91,-99.99,,,-99.99,,2013-01-08 08:53:00,
2013-01-08 03:02:00,28.0,26.0,29.58,South,177,5.0,-999.0,92,-99.99,,,-99.99,,2013-01-08 09:02:00,
2013-01-08 03:12:00,28.0,26.0,29.58,South,177,5.0,-999.0,92,-99.99,,,-99.99,,2013-01-08 09:12:00,
2013-01-08 03:22:00,29.0,27.0,29.58,South,171,7.0,-999.0,94,-99.99,,,-99.99,,2013-01-08 09:22:00,
2013-01-08 03:32:00,29.0,27.0,29.58,South,182,7.0,-999.0,94,-99.99,,,-99.99,,2013-01-08 09:32:00,
2013-01-08 03:42:00,29.0,27.0,29.58,South,182,7.0,-999.0,94,-99.99,,,-99.99,,2013-01-08 09:42:00,
2013-01-08 03:52:00,29.0,27.0,29.57,South,182,9.0,-999.0,94,-99.99,,,-99.99,,2013-01-08 09:52:00,
2013-01-08 04:02:00,30.0,29.0,29.56,South,182,8.0,-999.0,95,-99.99,,,-99.99,,2013-01-08 10:02:00,
2013-01-08 04:12:00,30.0,29.0,29.56,South,182,8.0,-999.0,95,-99.99,,,-99.99,,2013-01-08 10:12:00,
2013-01-08 04:22:00,30.0,29.0,29.54,SSW,199,9.0,-999.0,95,-99.99,,,-99.99,,2013-01-08 10:22:00,
2013-01-08 04:32:00,31.0,30.0,29.54,SSW,200,9.0,-999.0,95,-99.99,,,-99.99,,2013-01-08 10:32:00,
2013-01-08 04:42:00,31.0,30.0,29.54,SSW,200,9.0,-999.0,95,-99.99,,,-99.99,,2013-01-08 10:42:00,
2013-01-08 04:52:00,31.0,29.0,29.53,SSW,209,9.0,-999.0,94,-99.99,,,-99.99,,2013-01-08 10:52:00,
2013-01-08 05:02:00,32.0,30.0,29.52,SSW,196,10.0,-999.0,94,-99.99,,,-99.99,,2013-01-08 11:02:00,
2013-01-08 05:12:00,32.0,30.0,29.52,SSW,196,10.0,-999.0,94,-99.99,,,-99.99,,2013-01-08 11:12:00,
2013-01-08 05:22:00,32.0,30.0,29.52,SSW,211,9.0,-999.0,94,-99.99,,,-99.99,,2013-01-08 11:22:00,
2013-01-08 05:32:00,32.0,30.0,29.52,SSW,202,10.0,-999.0,93,-99.99,,,-99.99,,2013-01-08 11:32:00,
2013-01-08 05:42:00,32.0,30.0,29.52,SSW,202,10.0,-999.0,93,-99.99,,,-99.99,,2013-01-08 11:42:00,
2013-01-08 05:53:00,32.0,30.0,29.53,SW,227,5.0,-999.0,93,-99.99,,,-99.99,,2013-01-08 11:53:00,
2013-01-08 06:02:00,33.0,31.0,29.53,WSW,244,11.0,-999.0,92,-99.99,,,-99.99,,2013-01-08 12:02:00,
2013-01-08 06:12:00,33.0,31.0,29.53,WSW,244,11.0,-999.0,92,-99.99,,,-99.99,,2013-01-08 12:12:00,
2013-01-08 06:22:00,33.0,30.0,29.53,West,269,8.0,-999.0,89,-99.99,,,-99.99,,2013-01-08 12:22:00,
2013-01-08 06:32:00,35.0,32.0,29.53,West,270,13.0,-999.0,87,-99.99,,,-99.99,,2013-01-08 12:32:00,
2013-01-08 06:42:00,35.0,32.0,29.53,West,270,13.0,-999.0,87,-99.99,,,-99.99,,2013-01-08 12:42:00,
2013-01-08 06:53:00,35.0,31.0,29.53,West,270,13.0,-999.0,84,-99.99,,,-99.99,,2013-01-08 12:53:00,
2013-01-08 07:03:00,35.0,31.0,29.54,West,271,16.0,-999.0,84,-99.99,,,-99.99,,2013-01-08 13:03:00,
2013-01-08 07:12:00,35.0,31.0,29.54,West,271,16.0,-999.0,84,-99.99,,,-99.99,,2013-01-08 13:12:00,
2013-01-08 07:22:00,35.0,30.0,29.55,West,269,20.0,-999.0,82,-99.99,,,-99.99,,2013-01-08 13:22:00,
2013-01-08 07:32:00,34.0,29.0,29.55,West,272,13.0,-999.0,82,-99.99,,,-99.99,,2013-01-08 13:32:00,
2013-01-08 07:42:00,34.0,29.0,29.55,West,272,13.0,-999.0,82,-99.99,,,-99.99,,2013-01-08 13:42:00,
2013-01-08 07:53:00,33.0,28.0,29.59,West,269,13.0,-999.0,83,-99.99,,,-99.99,,2013-01-08 13:53:00,
2013-01-08 08:02:00,32.0,27.0,29.60,West,271,10.0,-999.0,82,-99.99,,,-99.99,,2013-01-08 14:02:00,
2013-01-08 08:12:00,32.0,27.0,29.60,West,271,10.0,-999.0,82,-99.99,,,-99.99,,2013-01-08 14:12:00,
2013-01-08 08:23:00,32.0,27.0,29.61,West,267,14.0,-999.0,82,-99.99,,,-99.99,,2013-01-08 14:23:00,
2013-01-08 08:33:00,32.0,27.0,29.62,West,269,13.0,-999.0,82,-99.99,,,-99.99,,2013-01-08 14:33:00,
2013-01-08 08:43:00,32.0,27.0,29.62,West,269,13.0,-999.0,82,-99.99,,,-99.99,,2013-01-08 14:43:00,
2013-01-08 08:53:00,31.0,26.0,29.62,West,267,12.0,-999.0,83,-99.99,,,-99.99,,2013-01-08 14:53:00,
2013-01-08 09:02:00,29.0,25.0,29.63,West,271,10.0,-999.0,83,-99.99,,,-99.99,,2013-01-08 15:02:00,
2013-01-08 09:12:00,29.0,25.0,29.63,West,271,10.0,-999.0,83,-99.99,,,-99.99,,2013-01-08 15:12:00,
2013-01-08 09:22:00,29.0,25.0,29.65,WSW,254,6.0,-999.0,85,-99.99,,,-99.99,,2013-01-08 15:22:00,
2013-01-08 09:33:00,29.0,25.0,29.66,West,267,10.0,-999.0,85,-99.99,,,-99.99,,2013-01-08 15:33:00,
2013-01-08 09:43:00,29.0,25.0,29.66,West,267,10.0,-999.0,85,-99.99,,,-99.99,,2013-01-08 15:43:00,
2013-01-08 09:53:00,30.0,26.0,29.67,West,268,10.0,-999.0,84,-99.99,,,-99.99,,2013-01-08 15:53:00,
2013-01-08 10:03:00,29.0,25.0,29.68,West,269,6.0,-999.0,84,-99.99,,,-99.99,,2013-01-08 16:03:00,
2013-01-08 10:12:00,29.0,25.0,29.68,West,269,6.0,-999.0,84,-99.99,,,-99.99,,2013-01-08 16:12:00,
2013-01-08 10:22:00,30.0,26.0,29.68,West,269,11.0,-999.0,84,-99.99,,,-99.99,,2013-01-08 16:22:00,
2013-01-08 10:33:00,30.0,25.0,29.68,West,268,10.0,-999.0,83,-99.99,,,-99.99,,2013-01-08 16:33:00,
2013-01-08 10:42:00,30.0,25.0,29.68,West,268,10.0,-999.0,83,-99.99,,,-99.99,,2013-01-08 16:42:00,
2013-01-08 10:53:00,32.0,27.0,29.69,West,266,14.0,-999.0,82,-99.99,,,-99.99,,2013-01-08 16:53:00,
2013-01-08 11:03:00,32.0,27.0,29.69,West,265,15.0,-999.0,82,-99.99,,,-99.99,,2013-01-08 17:03:00,
2013-01-08 11:13:00,32.0,27.0,29.69,West,265,15.0,-999.0,82,-99.99,,,-99.99,,2013-01-08 17:13:00,
2013-01-08 11:23:00,32.0,27.0,29.70,West,269,18.0,-999.0,81,-99.99,,,-99.99,,2013-01-08 17:23:00,
2013-01-08 11:33:00,33.0,28.0,29.71,West,267,14.0,-999.0,82,-99.99,,,-99.99,,2013-01-08 17:33:00,
2013-01-08 11:43:00,33.0,28.0,29.71,West,267,14.0,-999.0,82,-99.99,,,-99.99,,2013-01-08 17:43:00,
2013-01-08 11:54:00,33.0,28.0,29.71,West,271,12.0,-999.0,82,-99.99,,,-99.99,,2013-01-08 17:54:00,
2013-01-08 12:03:00,33.0,28.0,29.71,West,267,12.0,-999.0,81,-99.99,,,-99.99,,2013-01-08 18:03:00,
2013-01-08 12:12:00,33.0,28.0,29.71,West,267,12.0,-999.0,81,-99.99,,,-99.99,,2013-01-08 18:12:00,
2013-01-08 12:23:00,34.0,28.0,29.71,West,270,13.0,-999.0,80,-99.99,,,-99.99,,2013-01-08 18:23:00,
2013-01-08 12:33:00,34.0,28.0,29.72,West,268,14.0,-999.0,79,-99.99,,,-99.99,,2013-01-08 18:33:00,
2013-01-08 12:43:00,34.0,28.0,29.72,West,268,14.0,-999.0,79,-99.99,,,-99.99,,2013-01-08 18:43:00,
2013-01-08 12:53:00,35.0,29.0,29.72,West,267,13.0,-999.0,79,-99.99,,,-99.99,,2013-01-08 18:53:00,
2013-01-08 13:03:00,35.0,29.0,29.72,West,267,13.0,-999.0,79,-99.99,,,-99.99,,2013-01-08 19:03:00,
2013-01-08 13:12:00,35.0,29.0,29.72,West,267,13.0,-999.0,79,-99.99,,,-99.99,,2013-01-08 19:12:00,
2013-01-08 13:22:00,34.0,28.0,29.73,West,271,14.0,-999.0,79,-99.99,,,-99.99,,2013-01-08 19:22:00,
2013-01-08 13:32:00,35.0,29.0,29.73,WNW,282,14.0,-999.0,79,-99.99,,,-99.99,,2013-01-08 19:32:00,
2013-01-08 13:43:00,35.0,29.0,29.73,WNW,282,14.0,-999.0,79,-99.99,,,-99.99,,2013-01-08 19:43:00,
2013-01-08 13:53:00,35.0,29.0,29.73,West,276,14.0,-999.0,79,-99.99,,,-99.99,,2013-01-08 19:53:00,
2013-01-08 14:03:00,35.0,29.0,29.74,West,263,15.0,-999.0,79,-99.99,,,-99.99,,2013-01-08 20:03:00,
2013-01-08 14:12:00,35.0,29.0,29.74,West,263,15.0,-999.0,79,-99.99,,,-99.99,,2013-01-08 20:12:00,
2013-01-08 14:23:00,35.0,29.0,29.75,WNW,288,14.0,-999.0,79,-99.99,,,-99.99,,2013-01-08 20:23:00,
2013-01-08 14:33:00,35.0,29.0,29.75,WNW,288,14.0,-999.0,79,-99.99,,,-99.99,,2013-01-08 20:33:00,
2013-01-08 14:43:00,35.0,29.0,29.75,WNW,288,14.0,-999.0,79,-99.99,,,-99.99,,2013-01-08 20:43:00,
2013-01-08 14:53:00,35.0,30.0,29.76,West,276,14.0,-999.0,81,-99.99,,,-99.99,,2013-01-08 20:53:00,
2013-01-08 15:03:00,35.0,30.0,29.77,West,275,13.0,-999.0,81,-99.99,,,-99.99,,2013-01-08 21:03:00,
2013-01-08 15:13:00,35.0,30.0,29.77,West,275,13.0,-999.0,81,-99.99,,,-99.99,,2013-01-08 21:13:00,
2013-01-08 15:23:00,35.0,30.0,29.78,West,275,15.0,-999.0,82,-99.99,,,-99.99,,2013-01-08 21:23:00,
2013-01-08 15:33:00,35.0,30.0,29.78,West,271,14.0,-999.0,83,-99.99,,,-99.99,,2013-01-08 21:33:00,
2013-01-08 15:43:00,35.0,30.0,29.78,West,271,14.0,-999.0,83,-99.99,,,-99.99,,2013-01-08 21:43:00,
2013-01-08 15:53:00,35.0,30.0,29.79,West,271,15.0,-999.0,82,-99.99,,,-99.99,,2013-01-08 21:53:00,
2013-01-08 16:03:00,35.0,30.0,29.79,West,272,16.0,-999.0,81,-99.99,,,-99.99,,2013-01-08 22:03:00,
2013-01-08 16:12:00,35.0,30.0,29.79,West,272,16.0,-999.0,81,-99.99,,,-99.99,,2013-01-08 22:12:00,
2013-01-08 16:23:00,35.0,29.0,29.79,West,271,15.0,-999.0,80,-99.99,,,-99.99,,2013-01-08 22:23:00,
2013-01-08 16:32:00,34.0,28.0,29.80,West,271,14.0,-999.0,80,-99.99,,,-99.99,,2013-01-08 22:32:00,
2013-01-08 16:42:00,34.0,28.0,29.80,West,271,14.0,-999.0,80,-99.99,,,-99.99,,2013-01-08 22:42:00,
2013-01-08 16:53:00,34.0,28.0,29.81,West,270,15.0,-999.0,79,-99.99,,,-99.99,,2013-01-08 22:53:00,
2013-01-08 17:02:00,33.0,28.0,29.81,West,269,14.0,-999.0,80,-99.99,,,-99.99,,2013-01-08 23:02:00,
2013-01-08 17:12:00,33.0,28.0,29.81,West,269,14.0,-999.0,80,-99.99,,,-99.99,,2013-01-08 23:12:00,
2013-01-08 17:22:00,33.0,28.0,29.82,West,269,17.0,-999.0,80,-99.99,,,-99.99,,2013-01-08 23:22:00,
2013-01-08 17:32:00,33.0,28.0,29.83,West,279,17.0,-999.0,81,-99.99,,,-99.99,,2013-01-08 23:32:00,
2013-01-08 17:43:00,33.0,28.0,29.83,West,279,17.0,-999.0,81,-99.99,,,-99.99,,2013-01-08 23:43:00,
2013-01-08 17:53:00,32.0,27.0,29.83,West,269,17.0,-999.0,81,-99.99,,,-99.99,,2013-01-08 23:53:00,
2013-01-08 18:02:00,32.0,27.0,29.84,West,271,18.0,-999.0,82,-99.99,,,-99.99,,2013-01-09 00:02:00,
2013-01-08 18:12:00,32.0,27.0,29.84,West,271,18.0,-999.0,82,-99.99,,,-99.99,,2013-01-09 00:12:00,
2013-01-08 18:22:00,31.0,26.0,29.84,West,267,17.0,-999.0,83,-99.99,,,-99.99,,2013-01-09 00:22:00,
2013-01-08 18:33:00,32.0,28.0,29.85,West,277,20.0,-999.0,85,-99.99,,,-99.99,,2013-01-09 00:33:00,
2013-01-08 18:42:00,32.0,28.0,29.85,West,277,20.0,-999.0,85,-99.99,,,-99.99,,2013-01-09 00:42:00,
2013-01-08 18:53:00,32.0,28.0,29.85,West,269,20.0,-999.0,84,-99.99,,,-99.99,,2013-01-09 00:53:00,
2013-01-08 19:02:00,32.0,28.0,29.85,West,269,20.0,-999.0,84,-99.99,,,-99.99,,2013-01-09 01:02:00,
2013-01-08 19:12:00,32.0,28.0,29.85,West,269,20.0,-999.0,84,-99.99,,,-99.99,,2013-01-09 01:12:00,
2013-01-08 19:22:00,31.0,27.0,29.86,West,268,17.0,-999.0,84,-99.99,,,-99.99,,2013-01-09 01:22:00,
2013-01-08 19:32:00,30.0,25.0,29.87,West,276,14.0,-999.0,83,-99.99,,,-99.99,,2013-01-09 01:32:00,
2013-01-08 19:42:00,30.0,25.0,29.87,West,276,14.0,-999.0,83,-99.99,,,-99.99,,2013-01-09 01:42:00,
2013-01-08 19:52:00,30.0,25.0,29.88,West,272,13.0,-999.0,82,-99.99,,,-99.99,,2013-01-09 01:52:00,
2013-01-08 20:02:00,29.0,24.0,29.89,West,273,11.0,-999.0,81,-99.99,,,-99.99,,2013-01-09 02:02:00,
2013-01-08 20:12:00,29.0,24.0,29.89,West,273,11.0,-999.0,81,-99.99,,,-99.99,,2013-01-09 02:12:00,
2013-01-08 20:22:00,28.0,22.0,29.90,West,271,12.0,-999.0,79,-99.99,,,-99.99,,2013-01-09 02:22:00,
2013-01-08 20:32:00,28.0,22.0,29.90,West,271,12.0,-999.0,79,-99.99,,,-99.99,,2013-01-09 02:32:00,
2013-01-08 20:42:00,28.0,22.0,29.90,West,271,12.0,-999.0,79,-99.99,,,-99.99,,2013-01-09 02:42:00,
2013-01-08 20:53:00,27.0,21.0,29.92,West,273,10.0,-999.0,79,-99.99,,,-99.99,,2013-01-09 02:53:00,
2013-01-08 21:03:00,26.0,21.0,29.92,West,272,9.0,-999.0,80,-99.99,,,-99.99,,2013-01-09 03:03:00,
2013-01-08 21:12:00,26.0,21.0,29.92,West,272,9.0,-999.0,80,-99.99,,,-99.99,,2013-01-09 03:12:00,
2013-01-08 21:22:00,26.0,20.0,29.93,West,271,12.0,-999.0,78,-99.99,,,-99.99,,2013-01-09 03:22:00,
2013-01-08 21:33:00,25.0,19.0,29.92,West,279,12.0,-999.0,79,-99.99,,,-99.99,,2013-01-09 03:33:00,
2013-01-08 21:43:00,25.0,19.0,29.92,West,279,12.0,-999.0,79,-99.99,,,-99.99,,2013-01-09 03:43:00,
2013-01-08 21:53:00,25.0,20.0,29.93,West,273,13.0,-999.0,80,-99.99,,,-99.99,,2013-01-09 03:53:00,
2013-01-08 22:02:00,24.0,19.0,29.93,West,269,10.0,-999.0,80,-99.99,,,-99.99,,2013-01-09 04:02:00,
2013-01-08 22:12:00,24.0,19.0,29.93,West,269,10.0,-999.0,80,-99.99,,,-99.99,,2013-01-09 04:12:00,
2013-01-08 22:22:00,23.0,18.0,29.93,West,271,11.0,-999.0,81,-99.99,,,-99.99,,2013-01-09 04:22:00,
2013-01-08 22:32:00,22.0,17.0,29.93,West,269,7.0,-999.0,81,-99.99,,,-99.99,,2013-01-09 04:32:00,
2013-01-08 22:42:00,22.0,17.0,29.93,West,269,7.0,-999.0,81,-99.99,,,-99.99,,2013-01-09 04:42:00,
2013-01-08 22:52:00,20.0,15.0,29.94,West,266,4.0,-999.0,82,-99.99,,,-99.99,,2013-01-09 04:52:00,
2013-01-08 23:03:00,20.0,16.0,29.95,West,262,8.0,-999.0,84,-99.99,,,-99.99,,2013-01-09 05:03:00,
2013-01-08 23:12:00,20.0,16.0,29.95,West,262,8.0,-999.0,84,-99.99,,,-99.99,,2013-01-09 05:12:00,
2013-01-08 23:22:00,22.0,18.0,29.95,West,272,13.0,-999.0,83,-99.99,,,-99.99,,2013-01-09 05:22:00,
2013-01-08 23:33:00,21.0,16.0,29.96,West,267,12.0,-999.0,82,-99.99,,,-99.99,,2013-01-09 05:33:00,
2013-01-08 23:42:00,21.0,16.0,29.96,West,267,12.0,-999.0,82,-99.99,,,-99.99,,2013-01-09 05:42:00,
2013-01-08 23:52:00,22.0,17.0,29.97,West,271,11.0,-999.0,82,-99.99,,,-99.99,,2013-01-09 05:52:00,